Location: Centerville
(32.8776°N, 96.6203°W)
Time: 02:22:52
(UTC+00:00)

Meteor 1-28 Rocket - Pass Details

Date: 17 June 2021
Orbit: 502 x 523 km, 97.4° (Epoch: 27 July)

Event Time Altitude Azimuth Distance (km) Brightness Sun altitude
Exits shadow 09:53:24 23° 265° (W) 1,141 4.5 -15.3°
Drops below altitude 10° 09:56:24 10° 318° (NW) 1,759 5.9 -14.9°
Sets 09:58:50 0° 333° (NNW) 2,654 7.0 -14.5°
